| time (UTC) | temp C | wind direction | speed KPH | gust KPH | rain 1hr cm | rain 24hr cm | rain mn cm | humidity % | barometer mb |
| 20260505212004 | 16 | 201 | 3.2 | 9.7 | 0.03 | 0.05 | 0.05 | 75 | 1012.7 |
| 20260505210005 | 16 | 216 | 4.8 | 9.7 | 0.03 | 0.05 | 0.05 | 75 | 1012.8 |
| 20260505205004 | 16 | 190 | 3.2 | 11.3 | 0.03 | 0.05 | 0.05 | 80 | 1012.9 |
| 20260505204005 | 17 | 196 | 6.4 | 12.9 | 0.03 | 0.05 | 0.05 | 80 | 1012.6 |
| 20260505203004 | 17 | 103 | 3.2 | 17.7 | 0.03 | 0.05 | 0.05 | 84 | 1012.8 |
| 20260505202004 | 17 | 116 | 9.7 | 17.7 | 0.00 | 0.03 | 0.03 | 83 | 1012.7 |
| 20260505201004 | 18 | 167 | 3.2 | 6.4 | 0.00 | 0.03 | 0.03 | 82 | 1012.7 |
| 20260505195005 | 16 | 187 | 3.2 | 3.2 | 0.00 | 0.03 | 0.03 | 92 | 1012.3 |
| 20260505194005 | 16 | 0 | 0.0 | 3.2 | 0.00 | 0.03 | 0.03 | 92 | 1012.2 |
| 20260505193007 | 17 | 288 | 1.6 | 3.2 | 0.00 | 0.03 | 0.03 | 91 | 1012.2 |
| 20260505192004 | 17 | 315 | 1.6 | 3.2 | 0.00 | 0.03 | 0.03 | 91 | 1012.1 |
| 20260505191004 | 17 | 0 | 0.0 | 3.2 | 0.00 | 0.03 | 0.03 | 88 | 1012.0 |
| 20260505185004 | 16 | 223 | 1.6 | 3.2 | 0.00 | 0.03 | 0.03 | 91 | 1012.1 |
| 20260505184005 | 17 | 278 | 1.6 | 3.2 | 0.00 | 0.03 | 0.03 | 89 | 1011.9 |
| 20260505183004 | 17 | 0 | 0.0 | 3.2 | 0.00 | 0.03 | 0.03 | 88 | 1011.6 |
| 20260505182004 | 17 | 0 | 0.0 | 6.4 | 0.00 | 0.03 | 0.03 | 87 | 1011.8 |
| 20260505181004 | 17 | 230 | 3.2 | 6.4 | 0.00 | 0.03 | 0.03 | 89 | 1011.8 |
| 20260505180004 | 17 | 0 | 0.0 | 0.0 | 0.00 | 0.03 | 0.03 | 93 | 1012.0 |
| 20260505175005 | 17 | 0 | 0.0 | 3.2 | 0.00 | 0.03 | 0.03 | 92 | 1011.8 |
| 20260505174004 | 17 | 0 | 0.0 | 0.0 | 0.00 | 0.03 | 0.03 | 92 | 1011.9 |
| 20260505173005 | 18 | 0 | 0.0 | 3.2 | 0.00 | 0.03 | 0.03 | 91 | 1011.7 |
| 20260505172004 | 18 | 0 | 0.0 | 3.2 | 0.00 | 0.03 | 0.03 | 90 | 1011.9 |
| 20260505170004 | 18 | 0 | 0.0 | 3.2 | 0.00 | 0.03 | 0.03 | 89 | 1012.0 |
| 20260505165004 | 18 | 7 | 3.2 | 6.4 | 0.00 | 0.03 | 0.03 | 88 | 1011.8 |
| 20260505163004 | 19 | 0 | 0.0 | 3.2 | 0.00 | 0.03 | 0.03 | 85 | 1011.5 |
| 20260505162004 | 19 | 0 | 0.0 | 3.2 | 0.00 | 0.03 | 0.03 | 86 | 1011.9 |
| 20260505161004 | 18 | 0 | 0.0 | 3.2 | 0.00 | 0.03 | 0.03 | 89 | 1011.8 |
| 20260505152004 | 18 | 68 | 3.2 | 3.2 | 0.00 | 0.03 | 0.03 | 88 | 1012.1 |
| 20260505151003 | 18 | 0 | 0.0 | 3.2 | 0.00 | 0.03 | 0.03 | 89 | 1011.8 |
| 20260505125004 | 18 | 19 | 3.2 | 6.4 | 0.00 | 0.03 | 0.03 | 81 | 1012.5 |
| 20260505124003 | 18 | 14 | 4.8 | 6.4 | 0.00 | 0.03 | 0.03 | 82 | 1012.5 |
| 20260505123004 | 18 | 20 | 1.6 | 3.2 | 0.00 | 0.03 | 0.03 | 82 | 1012.5 |
| 20260505122003 | 18 | 0 | 0.0 | 6.4 | 0.00 | 0.03 | 0.03 | 80 | 1012.7 |
| 20260505121004 | 18 | 341 | 3.2 | 6.4 | 0.00 | 0.03 | 0.03 | 82 | 1012.8 |
| 20260505120005 | 18 | 357 | 3.2 | 9.7 | 0.00 | 0.03 | 0.03 | 78 | 1012.8 |
| 20260505115004 | 18 | 137 | 1.6 | 20.9 | 0.00 | 0.03 | 0.03 | 80 | 1013.1 |
| 20260505114004 | 17 | 46 | 4.8 | 6.4 | 0.00 | 0.03 | 0.03 | 87 | 1013.1 |
| 20260505113003 | 17 | 5 | 3.2 | 9.7 | 0.00 | 0.03 | 0.03 | 89 | 1013.0 |
| 20260505101003 | 17 | 354 | 3.2 | 6.4 | 0.03 | 0.03 | 0.03 | 92 | 1013.8 |
| 20260505100004 | 17 | 19 | 1.6 | 6.4 | 0.03 | 0.03 | 0.03 | 91 | 1013.7 |
| 20260505094004 | 17 | 0 | 0.0 | 3.2 | 0.00 | 0.00 | 0.00 | 88 | 1013.7 |
| 20260505093003 | 17 | 0 | 0.0 | 6.4 | 0.00 | 0.00 | 0.00 | 86 | 1013.7 |
| 20260505092003 | 18 | 103 | 3.2 | 6.4 | 0.00 | 0.00 | 0.00 | 84 | 1013.6 |
| 20260505091003 | 18 | 45 | 3.2 | 6.4 | 0.00 | 0.00 | 0.00 | 82 | 1013.5 |
| 20260505085003 | 18 | 19 | 1.6 | 6.4 | 0.00 | 0.00 | 0.00 | 79 | 1013.6 |
| 20260505084003 | 18 | 57 | 3.2 | 6.4 | 0.00 | 0.00 | 0.00 | 81 | 1013.5 |
| 20260505083003 | 18 | 55 | 3.2 | 6.4 | 0.00 | 0.00 | 0.00 | 81 | 1013.6 |
| 20260505082003 | 19 | 105 | 3.2 | 6.4 | 0.00 | 0.00 | 0.00 | 78 | 1013.6 |
| 20260505081003 | 19 | 0 | 0.0 | 3.2 | 0.00 | 0.00 | 0.00 | 74 | 1013.5 |
| 20260505080003 | 18 | 0 | 0.0 | 3.2 | 0.00 | 0.00 | 0.00 | 77 | 1013.5 |
| 20260505075003 | 17 | 53 | 1.6 | 3.2 | 0.00 | 0.00 | 0.00 | 80 | 1013.6 |
| 20260505074003 | 16 | 0 | 0.0 | 6.4 | 0.00 | 0.00 | 0.00 | 82 | 1013.7 |
| 20260505073004 | 17 | 0 | 0.0 | 3.2 | 0.00 | 0.00 | 0.00 | 81 | 1013.7 |
| 20260505071003 | 17 | 0 | 0.0 | 3.2 | 0.00 | 0.00 | 0.00 | 82 | 1013.4 |
| 20260505070004 | 17 | 0 | 0.0 | 3.2 | 0.00 | 0.00 | 0.00 | 80 | 1013.8 |
| 20260505065003 | 17 | 248 | 1.6 | 6.4 | 0.00 | 0.00 | 0.00 | 78 | 1013.6 |
| 20260505064003 | 16 | 260 | 3.2 | 6.4 | 0.00 | 0.00 | 0.00 | 82 | 1013.9 |
| 20260505063003 | 16 | 101 | 3.2 | 6.4 | 0.00 | 0.00 | 0.00 | 82 | 1013.7 |
| 20260505062003 | 16 | 0 | 0.0 | 6.4 | 0.00 | 0.00 | 0.00 | 84 | 1013.7 |
| 20260505061004 | 15 | 350 | 1.6 | 3.2 | 0.00 | 0.00 | 0.00 | 84 | 1013.7 |
| 20260505060004 | 16 | 306 | 3.2 | 6.4 | 0.00 | 0.00 | 0.00 | 81 | 1013.6 |
| 20260505055003 | 16 | 261 | 3.2 | 6.4 | 0.00 | 0.00 | 0.00 | 80 | 1013.8 |
| 20260505054005 | 16 | 252 | 3.2 | 6.4 | 0.00 | 0.00 | 0.00 | 80 | 1013.6 |
| 20260505053004 | 16 | 237 | 3.2 | 6.4 | 0.00 | 0.00 | 0.00 | 78 | 1013.4 |
| 20260505052003 | 17 | 145 | 3.2 | 6.4 | 0.00 | 0.00 | 0.00 | 73 | 1013.5 |
| 20260505051002 | 17 | 90 | 3.2 | 17.7 | 0.00 | 0.00 | 0.00 | 75 | 1013.5 |
| 20260505041003 | 15 | 331 | 3.2 | 3.2 | 0.00 | 0.00 | 0.00 | 86 | 1013.3 |
| 20260505040004 | 16 | 0 | 0.0 | 3.2 | 0.00 | 0.00 | 0.00 | 83 | 1013.3 |
| 20260505034002 | 15 | 211 | 1.6 | 3.2 | 0.00 | 0.00 | 0.00 | 86 | 1013.2 |
| 20260504230959 | 14 | 0 | 0.0 | 3.2 | 0.00 | 0.05 | 0.00 | 96 | 1014.5 |
| 20260504230002 | 14 | 0 | 0.0 | 3.2 | 0.00 | 0.05 | 0.00 | 96 | 1014.7 |
| 20260504225000 | 14 | 0 | 0.0 | 3.2 | 0.00 | 0.05 | 0.00 | 96 | 1014.7 |
| 20260504224000 | 14 | 0 | 0.0 | 3.2 | 0.00 | 0.05 | 0.00 | 96 | 1014.7 |
| 20260504223001 | 14 | 0 | 0.0 | 3.2 | 0.00 | 0.05 | 0.00 | 96 | 1014.7 |
| 20260504221001 | 14 | 0 | 0.0 | 0.0 | 0.00 | 0.05 | 0.00 | 96 | 1014.9 |
| 20260504214002 | 14 | 0 | 0.0 | 3.2 | 0.00 | 0.05 | 0.05 | 96 | 1015.0 |